Torna al catalogo

DELTA 1 DEB

AttivoSSO
NORAD 42084·DEBRIS·🇺🇸 United States

Lanciato Dec 15, 1968 da Vandenberg Space Force Base

Loading…

Prossimi Passaggi (prossime 24 ore)

TLE

AggiornatoSource: Space-Track

Epoca: Sep 11, 2026, 08:49 UTC

1 42084U 68114L   26254.36793290  .00000012  00000-0  28199-3 0  9991
2 42084 101.7092 302.5711 0337952  24.5853 337.0923 12.54103513310573

Traccia DELTA 1 DEB in tempo reale con AllMySat

Download on the App Store